Moses Lake, WA

4:31 PM PST on December 08, 2016 (GMT -0800)
Grant County International

Weather History for KMWH - August, 2013

Change the Weather History Date:

Friday, August 9, 2013

  Actual Average Record
Temperature  
Mean Temperature 79 °F 73 °F  
Max Temperature 98 °F 90 °F 99 °F (1981)
Min Temperature 59 °F 57 °F 45 °F (1985)
Degree Days  
Heating Degree Days 0 0  
Month to date heating degree days 0 0  
Since 1 June heating degree days 49 63  
Since 1 July heating degree days 0 8  
Cooling Degree Days 14 8  
Month to date cooling degree days 85 80  
Year to date cooling degree days 618 434  
Since 1 June cooling degree days 568 409  
Growing Degree Days 28 (Base 50)    
Moisture  
Dew Point 50 °F    
Average Humidity 43    
Maximum Humidity 67    
Minimum Humidity 18    
Precipitation  
Precipitation 0.00 in 0.01 in 0.05 in (1980)
Month to date precipitation 0.31 0.06  
Year to date precipitation 4.06 5.24  
Sea Level Pressure  
Sea Level Pressure 29.79 in    
Wind  
Wind Speed 6 mph (NNE)    
Max Wind Speed 23 mph    
Max Gust Speed 29 mph    
Visibility 10 miles    
Events      
T = Trace of Precipitation, MM = Missing Value Source: NWS Daily Summary

Daily Weather History Graph

Daily Weather History Graph

Search for Another Location

Airport or City:

Trip Planner

Search our weather history database for the weather conditions in past years. The results will help you decide how hot, cold, wet, or windy it might be!

Date:

Astronomy

Aug. 09, 2013 Rise Set
Actual Time 5:46 AM PDT 8:17 PM PDT
Civil Twilight 5:12 AM PDT 8:52 PM PDT
Nautical Twilight 4:28 AM PDT 9:35 PM PDT
Astronomical Twilight 3:38 AM PDT 10:24 PM PDT
Moon 8:53 AM PDT 9:12 PM PDT
Length of Visible Light 15h 39m
Length of Day
14h 31m
Waxing Crescent, 8% of the Moon is Illuminated
Aug 9
Waxing Crescent
Aug 14
First Quarter
Aug 20
Full
Aug 28
Last Quarter
Sep 5
New

Hourly Weather History & Observations

Time (PDT) Temp. Heat Index Dew Point Humidity Pressure Visibility Wind Dir Wind Speed Gust Speed Precip Events Conditions
12:52 AM 68.0 °F - 50.0 °F 52% 29.83 in 10.0 mi Calm Calm - N/A   Clear
1:52 AM 66.0 °F - 52.0 °F 60% 29.83 in 10.0 mi Calm Calm - N/A   Clear
2:52 AM 63.0 °F - 51.1 °F 65% 29.83 in 10.0 mi Calm Calm - N/A   Clear
3:52 AM 62.1 °F - 48.9 °F 62% 29.83 in 10.0 mi North 3.5 mph - N/A   Clear
4:52 AM 61.0 °F - 46.9 °F 60% 29.83 in 10.0 mi North 3.5 mph - N/A   Clear
5:52 AM 59.0 °F - 46.9 °F 64% 29.84 in 10.0 mi North 5.8 mph - N/A   Clear
6:52 AM 63.0 °F - 46.9 °F 56% 29.86 in 10.0 mi NW 3.5 mph - N/A   Clear
7:52 AM 69.1 °F - 46.0 °F 44% 29.86 in 10.0 mi NNE 3.5 mph - N/A   Clear
8:52 AM 79.0 °F - 46.9 °F 32% 29.85 in 10.0 mi North 9.2 mph - N/A   Clear
9:52 AM 84.9 °F - 46.0 °F 26% 29.84 in 10.0 mi NNE 8.1 mph - N/A   Clear
10:52 AM 88.0 °F - 48.9 °F 26% 29.84 in 10.0 mi NE 6.9 mph - N/A   Clear
11:52 AM 91.0 °F - 48.9 °F 23% 29.81 in 10.0 mi Calm Calm - N/A   Clear
12:52 PM 93.9 °F - 48.0 °F 21% 29.80 in 10.0 mi Variable 4.6 mph - N/A   Clear
1:52 PM 97.0 °F - 48.9 °F 19% 29.78 in 10.0 mi SSE 10.4 mph - N/A   Clear
2:52 PM 98.1 °F - 50.0 °F 20% 29.77 in 10.0 mi SE 11.5 mph - N/A   Clear
3:52 PM 95.0 °F - 48.9 °F 21% 29.76 in 10.0 mi East 3.5 mph - N/A   Clear
4:52 PM 96.1 °F - 48.9 °F 20% 29.73 in 10.0 mi Variable 3.5 mph - N/A   Clear
5:52 PM 96.1 °F - 46.9 °F 19% 29.73 in 10.0 mi SW 3.5 mph - N/A   Clear
6:52 PM 95.0 °F - 48.0 °F 20% 29.72 in 10.0 mi East 3.5 mph - N/A   Clear
7:52 PM 91.0 °F 88.5 °F 53.1 °F 27% 29.72 in 10.0 mi WSW 4.6 mph - N/A   Clear
8:52 PM 89.1 °F 86.9 °F 54.0 °F 30% 29.73 in 10.0 mi Calm Calm - N/A   Clear
9:52 PM 84.0 °F 82.6 °F 54.0 °F 35% 29.74 in 10.0 mi Calm Calm - N/A   Clear
10:52 PM 84.0 °F 83.3 °F 57.0 °F 40% 29.76 in 10.0 mi SW 16.1 mph - N/A   Scattered Clouds
11:52 PM 78.1 °F - 55.0 °F 45% 29.76 in 10.0 mi West 20.7 mph 27.6 mph N/A   Clear